Weather History for KALX - March, 2013

Change the Weather History Date:

Wednesday, March 20, 2013

  Actual Average (KAUO) Record (KAUO)
Temperature  
Mean Temperature 56 °F -  
Max Temperature 62 °F - 86 °F (1982)
Min Temperature 49 °F - 21 °F (1965)
Degree Days  
Heating Degree Days 10    
Month to date heating degree days  
Since 1 July heating degree days  
Cooling Degree Days 0    
Month to date cooling degree days  
Year to date cooling degree days  
Growing Degree Days 6 (Base 50)    
Moisture  
Dew Point 18 °F    
Average Humidity 26    
Maximum Humidity 44    
Minimum Humidity 15    
Precipitation  
Precipitation 0.00 in - 3.65 in (1970)
Month to date precipitation  
Year to date precipitation  
Sea Level Pressure  
Sea Level Pressure 30.05 in    
Wind  
Wind Speed 6 mph (NNW)    
Max Wind Speed 14 mph    
Max Gust Speed 22 mph    
Visibility 10 miles    
Events      
T = Trace of Precipitation, MM = Missing Value Source: NWS Daily Summary

Daily Weather History Graph

Daily Weather History Graph

Search for Another Location

Airport or City:

Trip Planner

Search our weather history database for the weather conditions in past years. The results will help you decide how hot, cold, wet, or windy it might be!

Date:

Astronomy

Mar. 20, 2013 Rise Set
Actual Time 6:47 AM CDT 6:55 PM CDT
Civil Twilight 6:22 AM CDT 7:20 PM CDT
Nautical Twilight 5:53 AM CDT 7:49 PM CDT
Astronomical Twilight 5:24 AM CDT 8:18 PM CDT
Moon 12:46 PM CDT (3/20) 2:09 AM CDT (3/20)
Length of Visible Light 12h 57m
Length of Day
12h 08m
First Quarter, 59% of the Moon is Illuminated
Mar 20
First Quarter
Mar 27
Full
Apr 2
Last Quarter
Apr 10
New
Apr 18
First Quarter

Hourly Weather History & Observations

Time (CDT) Temp. Dew Point Humidity Pressure Visibility Wind Dir Wind Speed Gust Speed Precip Events Conditions
12:15 AM 54.7 °F 31.8 °F 42% 30.07 in 10.0 mi NNE 4.6 mph - N/A   Clear
12:35 AM 52.2 °F 30.0 °F 43% 30.07 in 10.0 mi NNE 6.9 mph - N/A   Clear
12:55 AM 52.2 °F 30.7 °F 44% 30.07 in 10.0 mi NNE 4.6 mph - N/A   Clear
1:15 AM 51.4 °F 29.5 °F 43% 30.08 in 10.0 mi North 5.8 mph - N/A   Clear
1:35 AM 52.2 °F 28.0 °F 39% 30.08 in 10.0 mi NNE 6.9 mph - N/A   Clear
1:55 AM 50.9 °F 26.1 °F 38% 30.07 in 10.0 mi NNE 4.6 mph - N/A   Clear
2:15 AM 49.6 °F 23.5 °F 36% 30.08 in 10.0 mi NNE 5.8 mph - N/A   Clear
2:35 AM 50.0 °F 21.4 °F 32% 30.07 in 10.0 mi NE 6.9 mph - N/A   Clear
2:55 AM 50.0 °F 20.8 °F 32% 30.07 in 10.0 mi NE 4.6 mph - N/A   Clear
3:15 AM 49.6 °F 19.9 °F 31% 30.07 in 10.0 mi NE 3.5 mph - N/A   Clear
3:35 AM 49.6 °F 18.9 °F 30% 30.07 in 10.0 mi NNE 6.9 mph - N/A   Clear
3:55 AM 49.6 °F 18.0 °F 29% 30.07 in 10.0 mi NNE 8.1 mph - N/A   Clear
4:15 AM 49.6 °F 15.8 °F 26% 30.07 in 10.0 mi NNE 5.8 mph - N/A   Clear
4:35 AM 49.6 °F 15.4 °F 26% 30.07 in 10.0 mi NNE 5.8 mph - N/A   Clear
4:55 AM 49.6 °F 14.9 °F 25% 30.07 in 10.0 mi NNE 6.9 mph - N/A   Clear
5:15 AM 49.6 °F 14.5 °F 25% 30.08 in 10.0 mi NNE 6.9 mph - N/A   Clear
5:35 AM 49.6 °F 15.1 °F 25% 30.09 in 10.0 mi NE 4.6 mph - N/A   Clear
5:55 AM 49.6 °F 13.6 °F 24% 30.08 in 10.0 mi NE 5.8 mph - N/A   Clear
6:15 AM 49.6 °F 13.3 °F 23% 30.11 in 10.0 mi North 9.2 mph - N/A   Clear
6:35 AM 49.6 °F 13.5 °F 24% 30.11 in 10.0 mi NNE 4.6 mph - N/A   Clear
6:55 AM 49.6 °F 12.4 °F 22% 30.11 in 10.0 mi NE 4.6 mph - N/A   Clear
7:15 AM 49.6 °F 13.6 °F 24% 30.13 in 10.0 mi NNE 3.5 mph - N/A   Clear
7:35 AM 49.6 °F 13.5 °F 24% 30.15 in 10.0 mi NNE 3.5 mph - N/A   Clear
7:55 AM 49.6 °F 13.3 °F 23% 30.15 in 10.0 mi Calm Calm - N/A   Clear
8:15 AM 49.6 °F 14.0 °F 24% 30.16 in 10.0 mi NNE 4.6 mph - N/A   Clear
8:35 AM 50.0 °F 14.4 °F 24% 30.15 in 10.0 mi North 3.5 mph - N/A   Clear
8:55 AM 50.9 °F 14.2 °F 23% 30.14 in 10.0 mi NNE 4.6 mph - N/A   Clear
9:15 AM 50.9 °F 15.4 °F 24% 30.15 in 10.0 mi NE 4.6 mph - N/A   Clear
9:35 AM 52.0 °F 17.4 °F 26% 30.14 in 10.0 mi NNE 5.8 mph - N/A   Clear
9:55 AM 52.2 °F 16.0 °F 24% 30.14 in 10.0 mi North 4.6 mph - N/A   Clear
10:15 AM 54.7 °F 16.7 °F 22% 30.13 in 10.0 mi NNE 5.8 mph - N/A   Clear
10:55 AM 54.7 °F 13.6 °F 20% 30.14 in 10.0 mi NNE 3.5 mph - N/A   Clear
11:15 AM 54.7 °F 12.0 °F 18% 30.14 in 10.0 mi Calm Calm - N/A   Clear
11:35 AM 54.7 °F 16.2 °F 22% 30.13 in 10.0 mi North 6.9 mph - N/A   Clear
11:55 AM 54.9 °F 12.4 °F 19% 30.13 in 10.0 mi North 5.8 mph - N/A   Clear
12:15 PM 57.2 °F 14.4 °F 19% 30.12 in 10.0 mi NNW 6.9 mph - N/A   Clear
12:35 PM 57.2 °F 13.1 °F 18% 30.11 in 10.0 mi NNW 9.2 mph - N/A   Clear
12:55 PM 58.8 °F 15.1 °F 18% 30.10 in 10.0 mi North 4.6 mph - N/A   Clear
1:15 PM 57.6 °F 12.2 °F 17% 30.09 in 10.0 mi North 9.2 mph - N/A   Clear
1:35 PM 59.9 °F 13.5 °F 16% 30.07 in 10.0 mi North 9.2 mph - N/A   Clear
1:55 PM 59.9 °F 12.4 °F 15% 30.06 in 10.0 mi NW 8.1 mph - N/A   Clear
2:15 PM 60.4 °F 12.4 °F 15% 30.04 in 10.0 mi West 10.4 mph - N/A   Clear
2:35 PM 60.8 °F 12.0 °F 15% 30.04 in 10.0 mi West 6.9 mph - N/A   Clear
2:55 PM 60.6 °F 11.8 °F 15% 30.03 in 10.0 mi West 6.9 mph - N/A   Clear
3:15 PM 60.8 °F 13.3 °F 16% 30.02 in 10.0 mi WNW 9.2 mph - N/A   Clear
3:35 PM 61.2 °F 12.9 °F 15% 30.01 in 10.0 mi West 10.4 mph 19.6 mph N/A   Clear
3:55 PM 61.2 °F 12.6 °F 15% 30.00 in 10.0 mi NNW 12.7 mph 21.9 mph N/A   Clear
4:15 PM 61.7 °F 14.0 °F 16% 30.00 in 10.0 mi WNW 6.9 mph - N/A   Clear
4:35 PM 62.2 °F 13.8 °F 15% 29.99 in 10.0 mi WNW 10.4 mph 20.7 mph N/A   Clear
4:55 PM 62.2 °F 14.5 °F 16% 29.99 in 10.0 mi WNW 10.4 mph 21.9 mph N/A   Clear
5:15 PM 62.2 °F 16.2 °F 17% 29.99 in 10.0 mi West 8.1 mph 19.6 mph N/A   Clear
5:35 PM 61.3 °F 14.0 °F 16% 29.98 in 10.0 mi NW 13.8 mph - N/A   Clear
5:55 PM 61.0 °F 15.4 °F 17% 29.98 in 10.0 mi West 10.4 mph 19.6 mph N/A   Clear
6:15 PM 60.6 °F 15.3 °F 17% 29.97 in 10.0 mi WNW 9.2 mph 16.1 mph N/A   Clear
6:35 PM 59.9 °F 17.2 °F 19% 29.97 in 10.0 mi West 5.8 mph - N/A   Clear
6:55 PM 57.4 °F 18.5 °F 22% 29.97 in 10.0 mi West 4.6 mph - N/A   Clear
7:15 PM 57.2 °F 20.1 °F 24% 29.97 in 10.0 mi West 4.6 mph - N/A   Clear
7:35 PM 57.2 °F 21.2 °F 25% 29.97 in 10.0 mi West 4.6 mph - N/A   Clear
7:55 PM 54.7 °F 21.9 °F 28% 29.97 in 10.0 mi West 4.6 mph - N/A   Clear
8:15 PM 54.7 °F 24.4 °F 31% 29.97 in 10.0 mi WNW 3.5 mph - N/A   Clear
8:35 PM 54.5 °F 25.3 °F 32% 29.97 in 10.0 mi WNW 3.5 mph - N/A   Clear
8:55 PM 52.9 °F 23.9 °F 32% 29.98 in 10.0 mi WNW 4.6 mph - N/A   Clear
9:15 PM 52.2 °F 23.5 °F 33% 29.98 in 10.0 mi Calm Calm - N/A   Clear
9:35 PM 50.9 °F 23.4 °F 34% 29.98 in 10.0 mi NW 3.5 mph - N/A   Clear
9:55 PM 49.6 °F 23.2 °F 35% 29.98 in 10.0 mi WNW 3.5 mph - N/A   Clear
10:15 PM 49.6 °F 23.9 °F 37% 29.99 in 10.0 mi NW 3.5 mph - N/A   Clear
10:35 PM 49.6 °F 24.3 °F 37% 29.99 in 10.0 mi NW 6.9 mph - N/A   Clear
10:55 PM 50.5 °F 24.4 °F 36% 29.99 in 10.0 mi NW 8.1 mph 16.1 mph N/A   Clear
11:15 PM 49.6 °F 24.4 °F 37% 29.99 in 10.0 mi NW 6.9 mph - N/A   Clear
11:35 PM 49.6 °F 24.6 °F 38% 30.00 in 10.0 mi NW 11.5 mph 18.4 mph N/A   Clear
11:55 PM 49.6 °F 26.2 °F 40% 30.00 in 10.0 mi NNW 10.4 mph - N/A   Clear